Regional Weather Roundup
Issued by NWS

Home | Current Version | Previous Version | Graphics & Text | Print | Product List | Glossary On
Versions: 1 2 3 4 5 6 7 8 9 10 11 12 13 14 15 16 17 18 19 20 21 22 23 24 25 26 27 28 29 30 31 32 33 34 35 36 37 38 39 40 41 42 43 44 45 46 47 48 49 50
000
ASUS43 KFSD 242010
RWRSD

WEATHER ROUNDUP FOR SOUTH DAKOTA
NATIONAL WEATHER SERVICE SIOUX FALLS SD
200 PM CST WED DEC 24 2014

NOTE: "FAIR" INDICATES FEW OR NO CLOUDS BELOW 12,000 FEET WITH NO
SIGNIFICANT WEATHER AND/OR OBSTRUCTIONS TO VISIBILITY.


SDZ001>005-009-010-012>017-242100-
NORTHWEST AND NORTH CENTRAL SOUTH DAKOTA

CITY           SKY/WX    TMP DP  RH WIND       PRES   REMARKS
BUFFALO          N/A     39  27  62 VRB3      29.45F
FAITH            N/A     31  21  66 S10       29.53F WCI  22
MOBRIDGE       CLOUDY    28  23  81 SE15      29.54F WCI  16
$$

SDZ012>016-024>037-041>051-057-063-072>074-242100-
SOUTHWEST AND SOUTH CENTRAL SOUTH DAKOTA

CITY           SKY/WX    TMP DP  RH WIND       PRES   REMARKS
RAPID CTY ARPT PTSUNNY   35  24  64 E5        29.55F
PIERRE         MOSUNNY   27  20  75 SE8       29.63F WCI  19
CUSTER         MOSUNNY   38  18  44 W10       29.56F
ELLSWORTH AFB  PTSUNNY   38  25  61 SE2       29.53F
PHILIP         CLOUDY    34  23  64 SW6       29.60F WCI  29
PINE RIDGE     PTSUNNY   37  20  50 W13       29.62F
SPEARFISH      FAIR      45  27  49 W8        29.52F
WINNER         FAIR      32  20  61 S12       29.63F WCI  23
$$

SDZ004>011-016>023-039-040-242100-
NORTHEAST SOUTH DAKOTA

CITY           SKY/WX    TMP DP  RH WIND       PRES   REMARKS
ABERDEEN       CLOUDY    28  25  88 S10       29.65F WCI  19
WATERTOWN      CLOUDY    25  23  92 SW10      29.66F FOG     WCI  15
SISSETON         N/A     27  25  92 W7        29.67F WCI  19
$$

SDZ017-020-022-023-036>040-048>070-242100-
SOUTHEAST SOUTH DAKOTA

CITY           SKY/WX    TMP DP  RH WIND       PRES   REMARKS
SIOUX FALLS    CLOUDY    26  25  96 W9        29.71F FOG     WCI  17
HURON          CLOUDY    27  24  89 S8        29.69F WCI  19
CHAMBERLAIN    SUNNY     28  22  81 SE6       29.66F WCI  21
MITCHELL       CLOUDY    29  25  85 SW9       29.73F WCI  20
YANKTON        CLOUDY    28  25  86 SW6       29.75F WCI  22
$$

ABBREVIATIONS USED IN REMARKS
   TC - TEMPERATURE IN CELSIUS
  WCI - WIND CHILL INDEX
   HX - HEAT INDEX
  VSB - VISIBILITY




USA.gov is the U.S. government's official web portal to all federal, state and local government web resources and services.